Regional Weather Roundup
Issued by NWS

Home | Current Version | Previous Version | Graphics & Text | Print | Product List | Glossary On
Versions: 1 2 3 4 5 6 7 8 9 10 11 12 13 14 15 16 17 18 19 20 21 22 23 24 25 26 27 28 29 30 31 32 33 34 35 36 37 38 39 40 41 42 43 44 45 46 47 48 49 50
127
ASUS45 KTFX 291810
RWRMT
MONTANA REGIONAL WEATHER ROUNDUP
NATIONAL WEATHER SERVICE GREAT FALLS MT
1200 PM MDT FRI APR 29 2016

NOTE: "FAIR" INDICATES FEW OR NO CLOUDS BELOW 12000 FEET WITH NO
SIGNIFICANT WEATHER AND/OR OBSTRUCTIONS TO VISIBILITY.

MTZ001>007-043-291900-
WEST OF THE DIVIDE

CITY           SKY/WX    TMP DP  RH WIND       PRES   REMARKS
KALISPELL      CLOUDY    49  32  52 VRB3      29.92S
MISSOULA       CLOUDY    48  33  56 CALM      29.93F
BUTTE          PTSUNNY   42  26  53 E8        29.90F
MULLAN PASS    CLOUDY    34  26  72 CALM      29.90R
ANACONDA         N/A     45  27  49 SE5       29.90F
DEER LODGE       N/A     45  28  53 CALM      29.92S
EUREKA           N/A     46  34  61 SE5       29.94S
HAMILTON         N/A     43  32  65 N5        29.93S
LIBBY            N/A     45  36  70 CALM      29.95R
$$

MTZ008-052>055-291900-
SOUTHWEST MONTANA

CITY           SKY/WX    TMP DP  RH WIND       PRES   REMARKS
BOZEMAN        SUNNY     46  31  55 NW3       29.92F
DILLON         CLOUDY    43  27  53 VRB5      29.89F
ENNIS          MOSUNNY   45  30  57 N5        29.94F
TWIN BRIDGES     N/A     48  25  41 N7        29.90F
$$

MTZ009-010-012-014-046-048-049-054-291900-
EAST SLOPES AND CENTRAL MONTANA

CITY           SKY/WX    TMP DP  RH WIND       PRES   REMARKS
CUT BANK       CLOUDY    40  34  79 S9        29.97S
GREAT FALLS    CLOUDY    47  31  53 VRB5      29.96F
HELENA         CLOUDY    48  27  44 SE9       29.93F
CHOTEAU          N/A     43  34  70 CALM      29.97S
$$

MTZ011-013-016-021-045-047-050-051-291900-
NORTH CENTRAL MONTANA

CITY           SKY/WX    TMP DP  RH WIND       PRES   REMARKS
HAVRE          CLOUDY    51  35  54 SE18      30.02F
LEWISTOWN      CLOUDY    45  33  63 SE17G24   29.99R
N BAR RANCH    PTSUNNY   39  36  87 SE8       30.03F
CHINOOK          N/A     48  37  66 SE15      30.06F
$$

MTZ017>020-022>027-061-062-291900-
NORTHEAST MONTANA

CITY           SKY/WX    TMP DP  RH WIND       PRES   REMARKS
GLASGOW        CLOUDY    50  36  58 E14       30.10F
JORDAN           N/A     49  37  63 SE18      30.07F
SIDNEY         PTSUNNY   54  30  40 SE12G21   30.15F
WOLF POINT     MOSUNNY   57  27  31 E13G20    30.11F
PLENTYWOOD       N/A     55  25  30 E18G24    30.14F
POPLAR           N/A     54  28  37 SE14      30.13F
$$

MTZ028>42-056>058-291900-
SOUTHCENTRAL AND SOUTHEAST MONTANA

CITY           SKY/WX    TMP DP  RH WIND       PRES   REMARKS
BAKER          CLOUDY    49  35  58 SE15      30.10S
BILLINGS       CLOUDY    44  37  76 E7        30.00F
LIVINGSTON     CLOUDY    43  29  57 E9        29.95F
MILES CITY     CLOUDY    50  36  58 E13       30.07F
FORSYTH          N/A     48  34  57 E7        30.04F
LAUREL           N/A     44  33  65 NE6       29.98F
ROUNDUP          N/A     44  38  79 E2        29.93F
$$

REGIONAL REPORTS...DAKOTAS

CITY           SKY/WX    TMP DP  RH WIND       PRES   REMARKS
WILLISTON      SUNNY     56  26  31 SE15G22   30.16F
MINOT          SUNNY     61  24  24 E12       30.18F
DICKINSON      CLOUDY    51  27  39 E12       30.10F
BEACH            N/A     50  30  46 E12G17    30.13S
CROSBY           N/A     55  25  30 SE18      30.19F
TIOGA            N/A     55  23  28 E17G23    30.21F
WATFORD CITY     N/A     54  25  32 E10       30.16F
BISMARCK       SUNNY     57  31  37 NE14      30.13F
GRAND FORKS    MOSUNNY   58  32  37 NE8       30.20F
FARGO          SUNNY     61  30  31 NE12G20   30.14F
BUFFALO SD       N/A     48  30  49 E17       30.03F
RAPID CITY     CLOUDY    41  36  82 N5        30.08F
$$

REGIONAL REPORTS...WYOMING/IDAHO/WASHINGTON

CITY           SKY/WX    TMP DP  RH WIND       PRES   REMARKS
GILLETTE       CLOUDY    44  32  62 VRB3      30.01F
SHERIDAN       CLOUDY    44  30  57 CALM      30.00F
BUFFALO WY       N/A    N/A N/A N/A MISG      29.99F
CODY           CLOUDY    39  28  65 CALM      29.96S
YELLOWSTONE LA   N/A     36  21  54 VRB5      29.91F
IDAHO FALLS    PTSUNNY   49  34  56 SW8       29.89F
SALMON         CLOUDY    43  34  70 CALM      29.90S
BOISE          CLOUDY    58  38  47 NW12G20   29.90S
SPOKANE        LGT RAIN  51  39  63 CALM      29.95R
$$

REGIONAL REPORTS...ALBERTA

CITY           SKY/WX    TMP DP  RH WIND       PRES   REMARKS
EDMONTON       MOSUNNY   57  30  35 S10G21    29.95F
CALGARY        PTSUNNY   50  28  43 SE17G26   29.95S
LETHBRIDGE     CLOUDY    46  36  66 SE9G22    29.98R
MEDICINE HAT   PTSUNNY   50  34  53 SE15G21   30.03S
$$

REGIONAL REPORTS...SASKATCHEWAN

CITY           SKY/WX    TMP DP  RH WIND       PRES   REMARKS
SWIFT CURRENT  CLOUDY    55  23  28 SE17G28   30.08S
REGINA         MOSUNNY   59  10  14 SE18G26   30.18F
SASKATOON      SUNNY     61  16  17 SE17G26   30.17S
$$




USA.gov is the U.S. government's official web portal to all federal, state and local government web resources and services.